When you browse on this site, cookies collect data to enhance your experience and personalize the content and advertising you see.
Visit our Privacy Policy to learn more. By continuing to use the site, you agree to this use of cookies and data.
  • In Romania
  • List of Countries
  • For 7 days
  • Water Temperature
  • Satellite Maps
  • Weather Map
  • Weather Widgets
  • user-avatar
    Login

    Hourly Weather Oyem

    Today, 12 December, Wednesday

    Time Temperature Precipitation Wind Pressure Humidity
    00:00 +23°C° 0.1 mm 1 mps 704 mmHg 97%
    01:00 +22°C° 0 mm 1 mps 704 mmHg 98%
    02:00 +22°C° 0.2 mm 1 mps 704 mmHg 98%
    03:00 +22°C° 0.2 mm 1 mps 704 mmHg 98%
    04:00 +22°C° 0.2 mm 1 mps 704 mmHg 98%
    05:00 +22°C° 0 mm 1 mps 704 mmHg 98%
    06:00 +20°C° 0 mm 0 mps 704 mmHg 97%
    07:00 +21°C° 0 mm 0 mps 705 mmHg 96%
    08:00 +22°C° 0 mm 0 mps 705 mmHg 89%
    09:00 +24°C° 0 mm 0 mps 705 mmHg 83%
    10:00 +27°C° 0 mm 1 mps 706 mmHg 76%
    11:00 +29°C° 0.3 mm 1 mps 705 mmHg 68%
    12:00 +30°C° 0.3 mm 1 mps 705 mmHg 60%
    13:00 +32°C° 0.3 mm 1 mps 705 mmHg 53%
    14:00 +31°C° 0.6 mm 1 mps 704 mmHg 59%
    15:00 +28°C° 0.6 mm 0 mps 703 mmHg 66%
    16:00 +27°C° 0.6 mm 0 mps 703 mmHg 72%
    17:00 +25°C° 0.5 mm 0 mps 703 mmHg 79%
    18:00 +25°C° 0.5 mm 1 mps 703 mmHg 85%
    19:00 +24°C° 0.5 mm 1 mps 703 mmHg 91%
    20:00 +23°C° 0 mm 1 mps 704 mmHg 92%
    21:00 +23°C° 0 mm 1 mps 704 mmHg 93%
    22:00 +23°C° 0 mm 1 mps 705 mmHg 94%
    23:00 +22°C° 0 mm 1 mps 704 mmHg 95%

    Tomorrow, 13 December, Thursday

    Time Temperature Precipitation Wind Pressure Humidity
    00:00 +22°C° 0 mm 1 mps 704 mmHg 96%
    01:00 +22°C° 0 mm 1 mps 704 mmHg 97%
    02:00 +22°C° 0 mm 1 mps 704 mmHg 97%
    03:00 +19°C° 0 mm 0 mps 704 mmHg 98%
    04:00 +19°C° 0 mm 0 mps 704 mmHg 98%
    05:00 +19°C° 0.5 mm 0 mps 704 mmHg 97%
    06:00 +20°C° 0.5 mm 0 mps 705 mmHg 97%
    07:00 +20°C° 0.5 mm 0 mps 705 mmHg 96%
    08:00 +23°C° 0.4 mm 1 mps 706 mmHg 90%
    09:00 +25°C° 0.4 mm 1 mps 706 mmHg 84%
    10:00 +27°C° 0.4 mm 1 mps 706 mmHg 78%
    11:00 +29°C° 0.1 mm 1 mps 706 mmHg 69%
    12:00 +31°C° 0.1 mm 1 mps 706 mmHg 60%
    13:00 +32°C° 0.1 mm 1 mps 705 mmHg 51%
    14:00 +29°C° 0.4 mm 0 mps 705 mmHg 57%
    15:00 +28°C° 0.4 mm 0 mps 704 mmHg 63%
    16:00 +27°C° 0.4 mm 0 mps 703 mmHg 69%
    17:00 +27°C° 0.7 mm 1 mps 703 mmHg 77%
    18:00 +25°C° 0.7 mm 1 mps 704 mmHg 84%
    19:00 +23°C° 0.7 mm 1 mps 704 mmHg 92%
    20:00 +23°C° 0 mm 1 mps 704 mmHg 93%
    21:00 +23°C° 0 mm 1 mps 705 mmHg 94%
    22:00 +22°C° 0 mm 1 mps 705 mmHg 96%
    23:00 +22°C° 0 mm 1 mps 705 mmHg 96%

    Day after tomorrow, 14 December, Friday

    Time Temperature Precipitation Wind Pressure Humidity
    00:00 +22°C° 0 mm 1 mps 705 mmHg 96%
    01:00 +22°C° 0 mm 1 mps 704 mmHg 97%
    02:00 +22°C° 0 mm 1 mps 704 mmHg 97%
    03:00 +22°C° 0 mm 1 mps 704 mmHg 97%
    04:00 +22°C° 0 mm 1 mps 704 mmHg 97%
    05:00 +22°C° 0 mm 1 mps 704 mmHg 97%
    06:00 +22°C° 0 mm 1 mps 705 mmHg 97%
    07:00 +22°C° 0 mm 1 mps 705 mmHg 96%
    08:00 +24°C° 0 mm 1 mps 706 mmHg 88%
    09:00 +26°C° 0 mm 1 mps 706 mmHg 80%
    10:00 +28°C° 0 mm 1 mps 707 mmHg 72%
    11:00 +29°C° 0 mm 1 mps 706 mmHg 66%
    12:00 +30°C° 0 mm 1 mps 705 mmHg 59%
    13:00 +32°C° 0 mm 1 mps 705 mmHg 53%
    14:00 +31°C° 0.6 mm 1 mps 704 mmHg 57%
    15:00 +30°C° 0.6 mm 1 mps 704 mmHg 61%
    16:00 +27°C° 0.6 mm 0 mps 703 mmHg 66%
    17:00 +27°C° 0.5 mm 1 mps 704 mmHg 74%
    18:00 +26°C° 0.5 mm 1 mps 704 mmHg 83%
    19:00 +24°C° 0.5 mm 1 mps 704 mmHg 92%
    20:00 +23°C° 0 mm 1 mps 705 mmHg 93%
    21:00 +23°C° 0 mm 1 mps 705 mmHg 94%
    22:00 +23°C° 0 mm 1 mps 705 mmHg 96%
    23:00 +22°C° 0 mm 1 mps 705 mmHg 96%

    15 December, Saturday

    Time Temperature Precipitation Wind Pressure Humidity
    00:00 +22°C° 0 mm 1 mps 704 mmHg 97%
    01:00 +22°C° 0 mm 1 mps 704 mmHg 98%
    02:00 +22°C° 0 mm 1 mps 704 mmHg 98%
    03:00 +19°C° 0 mm 0 mps 704 mmHg 98%
    04:00 +19°C° 0 mm 0 mps 703 mmHg 99%
    05:00 +20°C° 0 mm 0 mps 704 mmHg 98%
    06:00 +20°C° 0 mm 0 mps 705 mmHg 97%
    07:00 +20°C° 0 mm 0 mps 705 mmHg 96%
    08:00 +22°C° 0 mm 0 mps 706 mmHg 88%
    09:00 +26°C° 0 mm 1 mps 706 mmHg 80%
    10:00 +27°C° 0 mm 1 mps 707 mmHg 72%
    11:00 +28°C° 0 mm 1 mps 706 mmHg 68%
    12:00 +29°C° 0 mm 1 mps 705 mmHg 63%
    13:00 +30°C° 0 mm 1 mps 705 mmHg 59%
    14:00 +30°C° 0 mm 1 mps 704 mmHg 59%
    15:00 +30°C° 0 mm 1 mps 704 mmHg 58%
    16:00 +30°C° 0 mm 1 mps 703 mmHg 58%
    17:00 +26°C° 0.1 mm 0 mps 703 mmHg 66%
    18:00 +24°C° 0.1 mm 0 mps 704 mmHg 74%
    19:00 +23°C° 0.1 mm 0 mps 704 mmHg 82%
    20:00 +22°C° 0.1 mm 0 mps 704 mmHg 86%
    21:00 +24°C° 0.1 mm 1 mps 705 mmHg 89%
    22:00 +23°C° 0.1 mm 1 mps 705 mmHg 92%
    23:00 +23°C° 0 mm 1 mps 705 mmHg 94%

    16 December, Sunday

    Time Temperature Precipitation Wind Pressure Humidity
    00:00 +23°C° 0 mm 1 mps 704 mmHg 95%
    01:00 +22°C° 0 mm 1 mps 704 mmHg 97%
    02:00 +22°C° 0 mm 1 mps 704 mmHg 98%
    03:00 +22°C° 0 mm 1 mps 704 mmHg 98%
    04:00 +21°C° 0 mm 1 mps 704 mmHg 99%
    05:00 +22°C° 0 mm 1 mps 704 mmHg 98%
    06:00 +22°C° 0 mm 1 mps 705 mmHg 97%
    07:00 +22°C° 0 mm 1 mps 705 mmHg 96%
    08:00 +24°C° 0 mm 1 mps 706 mmHg 85%
    09:00 +26°C° 0 mm 1 mps 706 mmHg 75%
    10:00 +28°C° 0 mm 1 mps 707 mmHg 65%
    11:00 +29°C° 0 mm 1 mps 706 mmHg 61%
    12:00 +30°C° 0 mm 1 mps 705 mmHg 57%
    13:00 +31°C° 0 mm 1 mps 704 mmHg 52%
    14:00 +31°C° 0.3 mm 1 mps 704 mmHg 56%
    15:00 +30°C° 0.3 mm 1 mps 703 mmHg 60%
    16:00 +30°C° 0.3 mm 1 mps 703 mmHg 63%
    17:00 +28°C° 0.5 mm 1 mps 703 mmHg 72%
    18:00 +26°C° 0.5 mm 1 mps 703 mmHg 80%
    19:00 +22°C° 0.5 mm 0 mps 704 mmHg 88%
    20:00 +23°C° 0.2 mm 1 mps 704 mmHg 90%
    21:00 +23°C° 0.2 mm 1 mps 704 mmHg 92%
    22:00 +23°C° 0.2 mm 1 mps 705 mmHg 94%
    23:00 +22°C° 0 mm 1 mps 705 mmHg 95%

    17 December, Monday

    Time Temperature Precipitation Wind Pressure Humidity
    00:00 +22°C° 0 mm 1 mps 704 mmHg 95%
    01:00 +22°C° 0 mm 1 mps 704 mmHg 96%
    02:00 +22°C° 0 mm 1 mps 704 mmHg 97%
    03:00 +21°C° 0 mm 1 mps 704 mmHg 97%
    04:00 +21°C° 0 mm 1 mps 704 mmHg 98%
    05:00 +21°C° 0 mm 1 mps 704 mmHg 97%
    06:00 +21°C° 0 mm 1 mps 705 mmHg 97%
    07:00 +21°C° 0 mm 1 mps 705 mmHg 96%
    08:00 +24°C° 0 mm 1 mps 705 mmHg 85%
    09:00 +26°C° 0 mm 1 mps 706 mmHg 73%
    10:00 +28°C° 0 mm 1 mps 706 mmHg 62%
    11:00 +30°C° 0 mm 1 mps 706 mmHg 57%
    12:00 +31°C° 0 mm 1 mps 705 mmHg 52%
    13:00 +32°C° 0 mm 1 mps 704 mmHg 47%
    14:00 +31°C° 0 mm 1 mps 704 mmHg 51%
    15:00 +31°C° 0 mm 1 mps 703 mmHg 55%
    16:00 +30°C° 0 mm 1 mps 703 mmHg 59%
    17:00 +28°C° 0.7 mm 1 mps 703 mmHg 68%
    18:00 +26°C° 0.7 mm 1 mps 703 mmHg 77%
    19:00 +24°C° 0.7 mm 1 mps 704 mmHg 86%
    20:00 +24°C° 0.3 mm 1 mps 704 mmHg 88%
    21:00 +23°C° 0.3 mm 1 mps 704 mmHg 91%
    22:00 +23°C° 0.3 mm 1 mps 705 mmHg 93%
    23:00 +22°C° 0 mm 1 mps 704 mmHg 94%
    Show more